Overview Statistics Trail Chart Weather Telemetry Raw packets
 

This is the latest recevied weather packets stored in our database for station/object KF6RAL-6. If no packets are shown the sender has not sent any weather packets the latest 10 day(s).

<< 61 62 63 64 65 66 67 >>
Time Temp. Humidity Pressure Rain* Wind** Luminosity Snow
1788024842 17.78° C 81% 1018.1 hPa 0.25 mm - - -
1788024407 18.33° C 77% 1018.3 hPa 0.25 mm - - -
1788023986 18.33° C 76% 1018.2 hPa 0.25 mm - - -
1788023565 18.33° C 77% 1018.5 hPa 0.25 mm - - -
1788023146 17.78° C 79% 1018.1 hPa 1.02 mm - - -
1788022724 17.22° C 82% 1018.2 hPa 3.3 mm - - -
1788021883 16.67° C 84% 1019 hPa 5.33 mm - - -
1788021460 16.67° C 85% 1019.1 hPa 5.33 mm - - -
1788020618 16.11° C 83% 1019 hPa 5.33 mm - - -
1788019776 16.67° C 81% 1019.6 hPa 5.33 mm - - -
1788019367 17.78° C 80% 1019.9 hPa 3.81 mm - - -
1788018934 18.89° C 83% 1019.6 hPa 1.02 mm - - -
1788018590 19.44° C 84% 1019 hPa 0 mm - - -
1788018513 19.44° C 84% 1019 hPa 0 mm - - -
1788018092 19.44° C 84% 1018.8 hPa 0 mm - - -
1788017671 19.44° C 84% 1018 hPa 0 mm - - -
1788017250 19.44° C 84% 1017.6 hPa 0 mm - - -
1788016830 19.44° C 84% 1017.5 hPa 0 mm - - -
1788016409 19.44° C 83% 1017.2 hPa 0 mm - - -
1788015987 19.44° C 83% 1017.2 hPa 0.51 mm - - -
1788015566 19.44° C 83% 1017 hPa 0.76 mm - - -
1788015145 19.44° C 84% 1016.9 hPa 0.76 mm - - -
1788014724 18.89° C 83% 1016.9 hPa 0.76 mm - - -
1788014303 18.89° C 82% 1017.4 hPa 0.76 mm - - -
1788013884 18.89° C 82% 1017.3 hPa 0.76 mm - - -

* Rain latest hour (hover to see other rain measurements)
** Current wind speed in m/s (hover to see current wind gust speed)